Regional Weather Roundup
Issued by NWS Nashville, TN

Home | Current Version | Previous Version | Text Only | Print | Product List | Glossary On
Versions: 1 2 3 4 5 6 7 8 9 10 11 12 13 14 15 16 17 18 19 20 21 22 23 24 25 26 27 28 29 30 31 32 33 34 35 36 37 38 39 40 41 42 43 44 45 46 47 48 49 50
000
ASUS44 KOHX 232210
RWROHX
MIDDLE TENNESSEE HOURLY WEATHER ROUNDUP
NATIONAL WEATHER SERVICE NASHVILLE TN
500 PM CDT SUN APR 23 2017

NOTE: "FAIR" INDICATES FEW OR NO CLOUDS BELOW 12,000 FEET WITH
NO SIGNIFICANT WEATHER AND/OR OBSTRUCTIONS TO VISIBILITY.

* THESE REPORTS ARE NOT UNDER NWS QUALITY CONTROL AND MAY NOT
  REPORT WEATHER SUCH AS PRECIPITATION AND FOG.


TNZ005>011-023>034-057-059-062>066-078-080-232300
...NORTHERN MIDDLE TENNESSEE...

CITY           SKY/WX    TMP DP  RH WIND       PRES   REMARKS
CLARKSVILLE    LGT RAIN  54  49  83 N7        29.89R
CROSSVILLE     CLOUDY    54  52  93 NE9       29.77F
GALLATIN       CLOUDY    54  50  87 N12G17    29.86R
DICKSON        CLOUDY    49  49 100 NE8       29.86R
LEBANON        CLOUDY    51  49  93 N7        29.81S
LIVINGSTON     MOSUNNY   53  50  90 NE10      29.79
NASHVILLE      RAIN      53  51  93 NW6       29.85R FOG
SMYRNA         LGT RAIN  52  50  93 N10       29.84S FOG
SPARTA         CLOUDY    55  52  88 CALM      29.76S
SPRINGFIELD    CLOUDY    52  50  93 N9G18     29.86R
$$
TNZ056-058-060-061-075>077-079-093>097-232300
...SOUTHERN MIDDLE TENNESSEE...

CITY           SKY/WX    TMP DP  RH WIND       PRES   REMARKS
COLUMBIA       CLOUDY   N/A N/A N/A VRB6      29.83S
FAYETTEVILLE   CLOUDY    54  52  94 VRB5G12   29.80S
MCMINNVILLE    CLOUDY    54  54 100 N8        29.78S
MURFREESBORO   CLOUDY    51  49  93 N9        29.81F
SHELBYVILLE    CLOUDY    52  52 100 NW9       29.81
WINCHESTER     CLOUDY    54  54 100 NW6       29.79S
$$


...KEY TO REMARKS...
VSB - VISIBILITY IN MILES
WCI - WIND CHILL INDEX
HX  - HEAT INDEX




USA.gov is the U.S. government's official web portal to all federal, state and local government web resources and services.